,,Stat6,,Stat2,,Stat8,,Stat9,,Stat10,,Wind1,,Wind1,
time,status,PA1M_AVG,status,PR1M_SUM,status,RH1M_AVG,status,SR1M_AVG,status,TA1M_AVG,status,W1dAve1m,status,W1sAve1m,
2004-04-10, 00:00:01,VALID,918.583,VALID,0,VALID,98.9664,VALID,-0.0339617,VALID,19.6038,VALID,126,VALID,1.27429,
2004-04-10, 00:01:00,VALID,918.593,VALID,0,VALID,98.9792,VALID,-0.101885,VALID,19.5944,VALID,126,VALID,1.09718,
2004-04-10, 00:02:01,VALID,918.59,VALID,0,VALID,99.0644,VALID,-0.0169808,VALID,19.5681,VALID,123,VALID,1.00888,
2004-04-10, 00:03:00,VALID,918.6,VALID,0,VALID,99.0783,VALID,-0.0849042,VALID,19.542,VALID,116,VALID,1.28162,
2004-04-10, 00:04:00,VALID,918.6,VALID,0,VALID,99.1724,VALID,-0.0679233,VALID,19.5293,VALID,115,VALID,1.17454,
2004-04-10, 00:05:00,VALID,918.613,VALID,0,VALID,99.1775,VALID,-0.0849042,VALID,19.5102,VALID,100,VALID,0.703125,
2004-04-10, 00:06:00,VALID,918.626,VALID,0,VALID,99.2678,VALID,-0.0339617,VALID,19.5067,VALID,72,VALID,0.676235,
2004-04-10, 00:07:01,VALID,918.65,VALID,0,VALID,99.2704,VALID,-0.0679233,VALID,19.507,VALID,76,VALID,0.900112,
2004-04-10, 00:08:00,VALID,918.65,VALID,0,VALID,99.3098,VALID,-0.0509425,VALID,19.5035,VALID,90,VALID,0.952398,
2004-04-10, 00:09:00,VALID,918.658,VALID,0,VALID,99.3123,VALID,-0.0509425,VALID,19.5003,VALID,99,VALID,1.08802,
2004-04-10, 00:10:00,VALID,918.68,VALID,0,VALID,99.3149,VALID,-0.0679233,VALID,19.5,VALID,113,VALID,0.850632,
2004-04-10, 00:11:00,VALID,918.675,VALID,0,VALID,99.3225,VALID,-0.0509425,VALID,19.5032,VALID,115,VALID,1.14737,
2004-04-10, 00:12:00,VALID,918.682,VALID,0,VALID,99.3288,VALID,-0.0849042,VALID,19.497,VALID,114,VALID,1.26882,
2004-04-10, 00:13:01,VALID,918.678,VALID,0,VALID,99.3683,VALID,-0.0679233,VALID,19.4941,VALID,117,VALID,1.35671,
2004-04-10, 00:14:01,VALID,918.67,VALID,0,VALID,99.4001,VALID,-0.0849042,VALID,19.4908,VALID,118,VALID,1.1875,
2004-04-10, 00:15:00,VALID,918.682,VALID,0,VALID,99.4598,VALID,-0.0849042,VALID,19.4906,VALID,112,VALID,0.949591,
2004-04-10, 00:16:00,VALID,918.675,VALID,0,VALID,99.4687,VALID,-0.0849042,VALID,19.4908,VALID,115,VALID,1.10653,
2004-04-10, 00:17:00,VALID,918.667,VALID,0,VALID,99.498,VALID,0.0169808,VALID,19.4799,VALID,113,VALID,1.04573,
2004-04-10, 00:18:00,VALID,918.657,VALID,0,VALID,99.5908,VALID,0.0339617,VALID,19.4926,VALID,122,VALID,1.14453,
2004-04-10, 00:19:00,VALID,918.655,VALID,0,VALID,99.6175,VALID,0.0679233,VALID,19.502,VALID,126,VALID,0.73331,
2004-04-10, 00:20:01,VALID,918.651,VALID,0,VALID,99.62,VALID,0.0169808,VALID,19.5216,VALID,119,VALID,0.854106,
2004-04-10, 00:21:00,VALID,918.648,VALID,0,VALID,99.634,VALID,0.0169808,VALID,19.5283,VALID,105,VALID,0.739879,
2004-04-10, 00:22:00,VALID,918.647,VALID,0,VALID,99.6531,VALID,0.0169808,VALID,19.5348,VALID,137,VALID,0.525073,
2004-04-10, 00:23:00,VALID,918.66,VALID,0,VALID,99.6556,VALID,0.0169808,VALID,19.5408,VALID,137,VALID,0.74782,
2004-04-10, 00:24:00,VALID,918.663,VALID,0,VALID,99.6798,VALID,0.0169808,VALID,19.5604,VALID,141,VALID,0.836496,
2004-04-10, 00:25:00,VALID,918.671,VALID,0,VALID,99.662,VALID,0,VALID,19.5673,VALID,132,VALID,0.862038,
2004-04-10, 00:26:00,VALID,918.673,VALID,0,VALID,99.6493,VALID,0,VALID,19.5703,VALID,141,VALID,0.939317,
2004-04-10, 00:27:00,VALID,918.674,VALID,0,VALID,99.6417,VALID,0.0339617,VALID,19.5895,VALID,136,VALID,0.770944,
2004-04-10, 00:28:00,VALID,918.661,VALID,0,VALID,99.615,VALID,0.0169808,VALID,19.6058,VALID,133,VALID,1.2486,
2004-04-10, 00:29:00,VALID,918.655,VALID,0,VALID,99.5654,VALID,0.0169808,VALID,19.6021,VALID,136,VALID,1.18062,
2004-04-10, 00:30:00,VALID,918.651,VALID,0,VALID,99.5374,VALID,0.0169808,VALID,19.6125,VALID,141,VALID,0.957933,
2004-04-10, 00:31:01,VALID,918.631,VALID,0,VALID,99.5336,VALID,0.0339617,VALID,19.6061,VALID,133,VALID,1.18714,
2004-04-10, 00:32:00,VALID,918.617,VALID,0,VALID,99.5514,VALID,0.0169808,VALID,19.5897,VALID,139,VALID,1.18187,
2004-04-10, 00:33:00,VALID,918.6,VALID,0,VALID,99.573,VALID,0,VALID,19.5996,VALID,153,VALID,0.755682,
2004-04-10, 00:34:00,VALID,918.584,VALID,0,VALID,99.573,VALID,0,VALID,19.5962,VALID,149,VALID,0.900618,
2004-04-10, 00:35:01,VALID,918.578,VALID,0,VALID,99.5654,VALID,0.0169808,VALID,19.5897,VALID,143,VALID,1.19699,
2004-04-10, 00:36:01,VALID,918.576,VALID,0,VALID,99.5832,VALID,0.0339617,VALID,19.5798,VALID,140,VALID,1.28639,
2004-04-10, 00:37:00,VALID,918.558,VALID,0,VALID,99.5806,VALID,0.0169808,VALID,19.583,VALID,149,VALID,1.13783,
2004-04-10, 00:38:00,VALID,918.556,VALID,0,VALID,99.62,VALID,0.0169808,VALID,19.58,VALID,143,VALID,0.939174,
2004-04-10, 00:39:00,VALID,918.554,VALID,0,VALID,99.6124,VALID,-0.0169808,VALID,19.5703,VALID,133,VALID,0.792411,
2004-04-10, 00:40:00,VALID,918.524,VALID,0,VALID,99.6137,VALID,-0.0169808,VALID,19.5805,VALID,137,VALID,0.795117,
2004-04-10, 00:41:00,VALID,918.516,VALID,0,VALID,99.6289,VALID,0,VALID,19.5636,VALID,141,VALID,0.97061,
2004-04-10, 00:42:01,VALID,918.501,VALID,0,VALID,99.62,VALID,0.0169808,VALID,19.5639,VALID,152,VALID,1.03925,
2004-04-10, 00:43:00,VALID,918.468,VALID,0,VALID,99.6277,VALID,0,VALID,19.5636,VALID,146,VALID,0.931176,
2004-04-10, 00:44:01,VALID,918.446,VALID,0,VALID,99.6022,VALID,0,VALID,19.5703,VALID,142,VALID,0.900298,
2004-04-10, 00:45:00,VALID,918.429,VALID,0,VALID,99.5857,VALID,0,VALID,19.5765,VALID,143,VALID,1.01935,
2004-04-10, 00:46:01,VALID,918.415,VALID,0,VALID,99.5221,VALID,0,VALID,19.5899,VALID,134,VALID,1.10387,
2004-04-10, 00:47:00,VALID,918.395,VALID,0,VALID,99.4585,VALID,-0.0679233,VALID,19.5979,VALID,128,VALID,1.19271,
2004-04-10, 00:48:00,VALID,918.381,VALID,0,VALID,99.3708,VALID,-0.0679233,VALID,19.5882,VALID,109,VALID,1.17129,
2004-04-10, 00:49:00,VALID,918.373,VALID,0,VALID,99.2704,VALID,-0.0339617,VALID,19.5847,VALID,79,VALID,0.747456,
2004-04-10, 00:50:01,VALID,918.36,VALID,0,VALID,99.2945,VALID,-0.0509425,VALID,19.5753,VALID,66,VALID,1.06808,
2004-04-10, 00:51:00,VALID,918.355,VALID,0,VALID,99.2983,VALID,-0.101885,VALID,19.5912,VALID,67,VALID,1.18429,
2004-04-10, 00:52:01,VALID,918.345,VALID,0,VALID,99.2843,VALID,-0.0849042,VALID,19.5976,VALID,61,VALID,0.965701,
2004-04-10, 00:53:00,VALID,918.338,VALID,0,VALID,99.1928,VALID,-0.0849042,VALID,19.6006,VALID,59,VALID,0.76399,
2004-04-10, 00:54:00,VALID,918.328,VALID,0,VALID,99.119,VALID,-0.0679233,VALID,19.5914,VALID,66,VALID,0.985224,
2004-04-10, 00:55:00,VALID,918.307,VALID,0,VALID,99.0974,VALID,-0.0679233,VALID,19.6043,VALID,48,VALID,0.788504,
2004-04-10, 00:56:01,VALID,918.291,VALID,0,VALID,98.9792,VALID,-0.0679233,VALID,19.5979,VALID,65,VALID,0.909091,
2004-04-10, 00:57:00,VALID,918.275,VALID,0,VALID,98.9639,VALID,-0.0679233,VALID,19.5947,VALID,65,VALID,0.691406,
2004-04-10, 00:58:00,VALID,918.262,VALID,0,VALID,98.9168,VALID,-0.0339617,VALID,19.5944,VALID,65,VALID,0.760069,
2004-04-10, 00:59:00,VALID,918.235,VALID,0,VALID,98.8927,VALID,-0.0339617,VALID,19.5942,VALID,70,VALID,1.05748,
2004-04-10, 01:00:00,VALID,918.226,VALID,0,VALID,98.8952,VALID,-0.0849042,VALID,19.5947,VALID,70,VALID,1.14435,
2004-04-10, 01:01:00,VALID,918.226,VALID,0,VALID,98.8736,VALID,-0.0509425,VALID,19.5882,VALID,68,VALID,1.04116,
2004-04-10, 01:02:00,VALID,918.212,VALID,0,VALID,98.8367,VALID,-0.0339617,VALID,19.5748,VALID,63,VALID,0.932091,
2004-04-10, 01:03:00,VALID,918.202,VALID,0,VALID,98.7999,VALID,-0.0849042,VALID,19.5653,VALID,76,VALID,0.641555,
2004-04-10, 01:04:00,VALID,918.194,VALID,0,VALID,98.8253,VALID,-0.0339617,VALID,19.5522,VALID,98,VALID,0.714472,
2004-04-10, 01:05:01,VALID,918.201,VALID,0,VALID,98.8316,VALID,-0.0509425,VALID,19.5626,VALID,80,VALID,0.61471,
2004-04-10, 01:06:01,VALID,918.192,VALID,0,VALID,98.8723,VALID,-0.0509425,VALID,19.5398,VALID,90,VALID,0.549665,
2004-04-10, 01:07:00,VALID,918.188,VALID,0,VALID,98.9563,VALID,-0.0509425,VALID,19.5455,VALID,102,VALID,0.449128,
2004-04-10, 01:08:00,VALID,918.188,VALID,0,VALID,98.9881,VALID,-0.0849042,VALID,19.5591,VALID,107,VALID,0.502804,
2004-04-10, 01:09:00,VALID,918.178,VALID,0,VALID,98.9855,VALID,-0.0509425,VALID,19.5686,VALID,110,VALID,0.555382,
2004-04-10, 01:10:00,VALID,918.156,VALID,0,VALID,98.9499,VALID,-0.0679233,VALID,19.5651,VALID,110,VALID,0.206445,
2004-04-10, 01:11:00,VALID,918.149,VALID,0,VALID,98.927,VALID,-0.0169808,VALID,19.5619,VALID,110,VALID,0.423234,
2004-04-10, 01:12:01,VALID,918.131,VALID,0,VALID,98.9105,VALID,-0.0339617,VALID,19.5651,VALID,110,VALID,0.390053,
2004-04-10, 01:13:01,VALID,918.097,VALID,0,VALID,98.8494,VALID,-0.0169808,VALID,19.5619,VALID,110,VALID,0.0616508,
2004-04-10, 01:14:00,VALID,918.067,VALID,0,VALID,98.7515,VALID,0,VALID,19.539,VALID,110,VALID,0,
2004-04-10, 01:15:00,VALID,918.045,VALID,0,VALID,98.6536,VALID,0,VALID,19.51,VALID,110,VALID,0.0949219,
2004-04-10, 01:16:00,VALID,918.018,VALID,0,VALID,98.585,VALID,-0.0169808,VALID,19.4811,VALID,110,VALID,0.416903,
2004-04-10, 01:17:00,VALID,917.989,VALID,0,VALID,98.7159,VALID,-0.0509425,VALID,19.4551,VALID,108,VALID,0.603237,
2004-04-10, 01:18:00,VALID,917.958,VALID,0,VALID,99.0313,VALID,-0.0339617,VALID,19.4456,VALID,107,VALID,0.853993,
2004-04-10, 01:19:00,VALID,917.922,VALID,0,VALID,99.1788,VALID,-0.0169808,VALID,19.4682,VALID,107,VALID,0.95141,
2004-04-10, 01:20:01,VALID,917.913,VALID,0,VALID,99.2208,VALID,-0.0169808,VALID,19.4618,VALID,108,VALID,1.03984,
2004-04-10, 01:21:00,VALID,917.895,VALID,0,VALID,99.3136,VALID,-0.0169808,VALID,19.4692,VALID,108,VALID,1.0867,
2004-04-10, 01:22:00,VALID,917.893,VALID,0,VALID,99.3644,VALID,-0.0169808,VALID,19.4727,VALID,106,VALID,0.94931,
2004-04-10, 01:23:00,VALID,917.881,VALID,0,VALID,99.381,VALID,-0.0169808,VALID,19.4714,VALID,98,VALID,0.969336,
2004-04-10, 01:24:01,VALID,917.88,VALID,0,VALID,99.2996,VALID,-0.0169808,VALID,19.4811,VALID,99,VALID,0.900493,
2004-04-10, 01:25:01,VALID,917.891,VALID,0,VALID,99.1432,VALID,-0.0339617,VALID,19.4685,VALID,91,VALID,0.822545,
2004-04-10, 01:26:00,VALID,917.894,VALID,0,VALID,99.0694,VALID,-0.0169808,VALID,19.4588,VALID,77,VALID,0.95873,
2004-04-10, 01:27:00,VALID,917.885,VALID,0,VALID,99.0783,VALID,-0.0509425,VALID,19.4488,VALID,78,VALID,0.934775,
2004-04-10, 01:28:01,VALID,917.878,VALID,0,VALID,99.1635,VALID,-0.0679233,VALID,19.4493,VALID,82,VALID,1.03335,
2004-04-10, 01:29:00,VALID,917.846,VALID,0,VALID,99.1152,VALID,-0.0509425,VALID,19.4327,VALID,93,VALID,0.883814,
2004-04-10, 01:30:00,VALID,917.829,VALID,0,VALID,99.1813,VALID,-0.0509425,VALID,19.4421,VALID,100,VALID,1.06523,
2004-04-10, 01:31:00,VALID,917.807,VALID,0,VALID,99.0783,VALID,0,VALID,19.4652,VALID,114,VALID,0.947409,
2004-04-10, 01:32:01,VALID,917.786,VALID,0,VALID,98.8787,VALID,-0.0339617,VALID,19.4528,VALID,122,VALID,0.938262,
2004-04-10, 01:33:00,VALID,917.76,VALID,0,VALID,98.8329,VALID,-0.0849042,VALID,19.417,VALID,122,VALID,0.923633,
2004-04-10, 01:34:00,VALID,917.736,VALID,0,VALID,98.9575,VALID,-0.0679233,VALID,19.3914,VALID,123,VALID,1.09985,
2004-04-10, 01:35:00,VALID,917.731,VALID,0,VALID,99.0122,VALID,-0.0679233,VALID,19.3755,VALID,130,VALID,1.13121,
2004-04-10, 01:36:00,VALID,917.718,VALID,0,VALID,99.0453,VALID,-0.0679233,VALID,19.3624,VALID,132,VALID,1.14063,
2004-04-10, 01:37:00,VALID,917.712,VALID,0,VALID,99.1101,VALID,-0.0169808,VALID,19.3492,VALID,133,VALID,1.0917,
2004-04-10, 01:38:00,VALID,917.711,VALID,0,VALID,99.1127,VALID,-0.0509425,VALID,19.3299,VALID,123,VALID,1.07919,
2004-04-10, 01:39:01,VALID,917.724,VALID,0,VALID,99.1559,VALID,-0.0509425,VALID,19.3102,VALID,124,VALID,1.14807,
2004-04-10, 01:40:01,VALID,917.73,VALID,0,VALID,99.2729,VALID,-0.0849042,VALID,19.3172,VALID,123,VALID,1.11346,
2004-04-10, 01:41:00,VALID,917.745,VALID,0,VALID,99.4268,VALID,-0.0849042,VALID,19.3231,VALID,110,VALID,1.05243,
2004-04-10, 01:42:01,VALID,917.756,VALID,0,VALID,99.4624,VALID,-0.0339617,VALID,19.3557,VALID,99,VALID,1.09449,
2004-04-10, 01:43:00,VALID,917.762,VALID,0,VALID,99.4179,VALID,-0.0509425,VALID,19.3917,VALID,98,VALID,1.15034,
2004-04-10, 01:44:00,VALID,917.757,VALID,0,VALID,99.3034,VALID,-0.0679233,VALID,19.4275,VALID,105,VALID,1.22042,
2004-04-10, 01:45:01,VALID,917.753,VALID,0,VALID,99.1826,VALID,-0.0509425,VALID,19.4588,VALID,110,VALID,1.37464,
2004-04-10, 01:46:01,VALID,917.742,VALID,0,VALID,98.9346,VALID,-0.0169808,VALID,19.5206,VALID,117,VALID,1.30955,
2004-04-10, 01:47:01,VALID,917.723,VALID,0,VALID,98.6778,VALID,0,VALID,19.5514,VALID,126,VALID,1.11223,
2004-04-10, 01:48:01,VALID,917.717,VALID,0,VALID,98.3599,VALID,0.0169808,VALID,19.5773,VALID,128,VALID,1.05393,
2004-04-10, 01:49:01,VALID,917.724,VALID,0,VALID,98.0636,VALID,0.0169808,VALID,19.5512,VALID,128,VALID,1.03403,
2004-04-10, 01:50:01,VALID,917.721,VALID,0,VALID,97.9021,VALID,0.0169808,VALID,19.5157,VALID,127,VALID,1.01246,
2004-04-10, 01:51:01,VALID,917.721,VALID,0,VALID,97.939,VALID,0.0169808,VALID,19.4481,VALID,123,VALID,1.13872,
2004-04-10, 01:52:01,VALID,917.718,VALID,0,VALID,98.2022,VALID,0,VALID,19.4064,VALID,115,VALID,1.21239,
2004-04-10, 01:53:01,VALID,917.712,VALID,0,VALID,98.4362,VALID,0,VALID,19.3674,VALID,132,VALID,1.16715,
2004-04-10, 01:54:01,VALID,917.705,VALID,0,VALID,98.7706,VALID,0,VALID,19.3644,VALID,138,VALID,1.31268,
2004-04-10, 01:55:01,VALID,917.701,VALID,0,VALID,98.9092,VALID,0,VALID,19.3743,VALID,140,VALID,1.27418,
2004-04-10, 01:56:01,VALID,917.68,VALID,0,VALID,98.9677,VALID,0,VALID,19.3808,VALID,142,VALID,0.993712,
2004-04-10, 01:57:01,VALID,917.691,VALID,0,VALID,99.0694,VALID,0,VALID,19.383,VALID,135,VALID,1.06319,
2004-04-10, 01:58:00,VALID,917.678,VALID,0,VALID,99.0377,VALID,0.0169808,VALID,19.4034,VALID,132,VALID,0.954459,
2004-04-10, 01:59:01,VALID,917.666,VALID,0,VALID,99.0377,VALID,0,VALID,19.3962,VALID,139,VALID,0.736919,
2004-04-10, 02:00:00,VALID,917.667,VALID,0,VALID,98.9728,VALID,0.0169808,VALID,19.4061,VALID,140,VALID,0.282774,
2004-04-10, 02:01:01,VALID,917.658,VALID,0,VALID,98.9346,VALID,0.0169808,VALID,19.4064,VALID,141,VALID,0.258345,
2004-04-10, 02:02:01,VALID,917.658,VALID,0,VALID,98.8952,VALID,0.0169808,VALID,19.3992,VALID,141,VALID,0.473785,
2004-04-10, 02:03:01,VALID,917.67,VALID,0,VALID,98.8584,VALID,0,VALID,19.3964,VALID,141,VALID,0.749818,
2004-04-10, 02:04:01,VALID,917.68,VALID,0,VALID,98.8393,VALID,0.0169808,VALID,19.3667,VALID,138,VALID,0.850675,
2004-04-10, 02:05:01,VALID,917.689,VALID,0,VALID,98.8749,VALID,0,VALID,19.3738,VALID,135,VALID,1.01799,
2004-04-10, 02:06:01,VALID,917.715,VALID,0,VALID,98.8596,VALID,0.0169808,VALID,19.3674,VALID,132,VALID,1.05692,
2004-04-10, 02:07:01,VALID,917.727,VALID,0,VALID,98.8863,VALID,0,VALID,19.3505,VALID,141,VALID,1.09375,
2004-04-10, 02:08:01,VALID,917.738,VALID,0,VALID,98.8876,VALID,0,VALID,19.3515,VALID,131,VALID,0.826308,
2004-04-10, 02:09:01,VALID,917.739,VALID,0,VALID,98.8749,VALID,0.0339617,VALID,19.3483,VALID,123,VALID,0.613104,
2004-04-10, 02:10:01,VALID,917.734,VALID,0,VALID,98.9003,VALID,0,VALID,19.3348,VALID,128,VALID,0.698583,
2004-04-10, 02:11:01,VALID,917.731,VALID,0,VALID,98.9486,VALID,0,VALID,19.3351,VALID,136,VALID,0.686756,
2004-04-10, 02:12:01,VALID,917.708,VALID,0,VALID,99.0173,VALID,0.0169808,VALID,19.3448,VALID,142,VALID,0.647507,
2004-04-10, 02:13:01,VALID,917.698,VALID,0,VALID,99.0338,VALID,0,VALID,19.3515,VALID,149,VALID,0.556286,
2004-04-10, 02:14:01,VALID,917.682,VALID,0,VALID,99.0275,VALID,0.0169808,VALID,19.3612,VALID,151,VALID,0.481399,
2004-04-10, 02:15:01,VALID,917.658,VALID,0,VALID,99.0682,VALID,0,VALID,19.3741,VALID,148,VALID,0.797903,
2004-04-10, 02:16:01,VALID,917.647,VALID,0,VALID,99.0758,VALID,0,VALID,19.3674,VALID,144,VALID,0.733285,
2004-04-10, 02:17:01,VALID,917.635,VALID,0,VALID,99.0249,VALID,0.0169808,VALID,19.3609,VALID,144,VALID,0.797637,
2004-04-10, 02:18:01,VALID,917.624,VALID,0,VALID,99.0415,VALID,0,VALID,19.3445,VALID,134,VALID,0.795573,
2004-04-10, 02:19:01,VALID,917.606,VALID,0,VALID,99.1279,VALID,0,VALID,19.3383,VALID,138,VALID,0.794643,
2004-04-10, 02:20:01,VALID,917.61,VALID,0,VALID,99.2004,VALID,0,VALID,19.3286,VALID,134,VALID,0.801067,
2004-04-10, 02:21:01,VALID,917.603,VALID,0,VALID,99.2119,VALID,0.0169808,VALID,19.3217,VALID,118,VALID,0.808966,
2004-04-10, 02:22:01,VALID,917.591,VALID,0,VALID,99.1521,VALID,0.0509425,VALID,19.309,VALID,104,VALID,0.588415,
2004-04-10, 02:23:01,VALID,917.571,VALID,0,VALID,99.0516,VALID,0,VALID,19.3035,VALID,99,VALID,0.685683,
2004-04-10, 02:24:01,VALID,917.569,VALID,0,VALID,99.0987,VALID,0.0169808,VALID,19.2834,VALID,82,VALID,0.80163,
2004-04-10, 02:25:01,VALID,917.569,VALID,0,VALID,99.1991,VALID,0.0169808,VALID,19.2869,VALID,74,VALID,0.909979,
2004-04-10, 02:26:01,VALID,917.561,VALID,0,VALID,99.1381,VALID,0.0339617,VALID,19.2834,VALID,77,VALID,0.832031,
2004-04-10, 02:27:01,VALID,917.545,VALID,0,VALID,99.0644,VALID,0.0169808,VALID,19.2834,VALID,66,VALID,0.865327,
2004-04-10, 02:28:01,VALID,917.552,VALID,0,VALID,98.9881,VALID,0,VALID,19.2608,VALID,64,VALID,0.746838,
2004-04-10, 02:29:01,VALID,917.524,VALID,0,VALID,99.0071,VALID,0,VALID,19.2511,VALID,64,VALID,0.718564,
2004-04-10, 02:30:01,VALID,917.52,VALID,0,VALID,99.1025,VALID,0,VALID,19.2482,VALID,66,VALID,0.645597,
2004-04-10, 02:31:01,VALID,917.493,VALID,0,VALID,99.1406,VALID,0.0339617,VALID,19.2382,VALID,66,VALID,0.88058,
2004-04-10, 02:32:01,VALID,917.471,VALID,0,VALID,99.1864,VALID,0,VALID,19.2583,VALID,79,VALID,0.96189,
2004-04-10, 02:33:01,VALID,917.426,VALID,0,VALID,99.0834,VALID,-0.0509425,VALID,19.2943,VALID,86,VALID,0.92351,
2004-04-10, 02:34:01,VALID,917.411,VALID,0,VALID,98.7363,VALID,-0.0509425,VALID,19.307,VALID,90,VALID,0.621548,
2004-04-10, 02:35:01,VALID,917.391,VALID,0,VALID,98.5659,VALID,-0.0509425,VALID,19.3008,VALID,111,VALID,0.850852,
2004-04-10, 02:36:00,VALID,917.383,VALID,0,VALID,98.4909,VALID,-0.0169808,VALID,19.2779,VALID,123,VALID,1.05703,
2004-04-10, 02:37:00,VALID,917.362,VALID,0,VALID,98.5048,VALID,-0.0169808,VALID,19.2521,VALID,120,VALID,1.04111,
2004-04-10, 02:38:00,VALID,917.378,VALID,0,VALID,98.7032,VALID,-0.0169808,VALID,19.2486,VALID,103,VALID,1.04129,
2004-04-10, 02:39:00,VALID,917.381,VALID,0,VALID,98.7782,VALID,-0.0339617,VALID,19.2586,VALID,87,VALID,0.987571,
2004-04-10, 02:40:00,VALID,917.378,VALID,0,VALID,98.6155,VALID,-0.0679233,VALID,19.2295,VALID,76,VALID,1.06795,
2004-04-10, 02:41:00,VALID,917.373,VALID,0,VALID,98.5939,VALID,-0.0169808,VALID,19.1843,VALID,80,VALID,1.1077,
2004-04-10, 02:42:00,VALID,917.372,VALID,0,VALID,98.8062,VALID,-0.0679233,VALID,19.1711,VALID,90,VALID,1.09947,
2004-04-10, 02:43:00,VALID,917.379,VALID,0,VALID,98.894,VALID,-0.0509425,VALID,19.1652,VALID,101,VALID,0.810417,
2004-04-10, 02:44:00,VALID,917.376,VALID,0,VALID,98.9728,VALID,-0.0679233,VALID,19.1518,VALID,91,VALID,0.862282,
2004-04-10, 02:45:00,VALID,917.384,VALID,0,VALID,98.9601,VALID,-0.0509425,VALID,19.1426,VALID,75,VALID,0.772372,
2004-04-10, 02:46:00,VALID,917.382,VALID,0,VALID,98.8876,VALID,-0.0509425,VALID,19.1239,VALID,73,VALID,1.03757,
2004-04-10, 02:47:00,VALID,917.38,VALID,0,VALID,99.0008,VALID,-0.0169808,VALID,19.0971,VALID,72,VALID,1.01209,
2004-04-10, 02:48:00,VALID,917.379,VALID,0,VALID,99.0631,VALID,-0.0339617,VALID,19.0879,VALID,75,VALID,0.771875,
2004-04-10, 02:49:00,VALID,917.37,VALID,0,VALID,99.0745,VALID,-0.0679233,VALID,19.0715,VALID,75,VALID,0.691034,
2004-04-10, 02:50:00,VALID,917.356,VALID,0,VALID,99.1203,VALID,-0.0849042,VALID,19.0559,VALID,76,VALID,0.763765,
2004-04-10, 02:51:00,VALID,917.34,VALID,0,VALID,99.203,VALID,-0.0339617,VALID,19.0293,VALID,80,VALID,0.698661,
2004-04-10, 02:52:00,VALID,917.329,VALID,0,VALID,99.2704,VALID,-0.0339617,VALID,19.033,VALID,81,VALID,0.639382,
2004-04-10, 02:53:00,VALID,917.328,VALID,0,VALID,99.175,VALID,-0.101885,VALID,19.0134,VALID,81,VALID,0.489955,
2004-04-10, 02:54:00,VALID,917.328,VALID,0,VALID,99.0644,VALID,-0.0849042,VALID,18.9883,VALID,73,VALID,0.683503,
2004-04-10, 02:55:00,VALID,917.346,VALID,0,VALID,99.0605,VALID,-0.0679233,VALID,18.9592,VALID,73,VALID,0.63299,
2004-04-10, 02:56:00,VALID,917.338,VALID,0,VALID,98.9868,VALID,-0.0679233,VALID,18.9237,VALID,97,VALID,0.648983,
2004-04-10, 02:57:00,VALID,917.347,VALID,0,VALID,99.1623,VALID,-0.0849042,VALID,18.8875,VALID,107,VALID,0.764623,
2004-04-10, 02:58:00,VALID,917.361,VALID,0,VALID,99.2551,VALID,-0.0679233,VALID,18.8778,VALID,89,VALID,0.654046,
2004-04-10, 02:59:00,VALID,917.36,VALID,0,VALID,99.4166,VALID,-0.0509425,VALID,18.8817,VALID,120,VALID,0.668155,
2004-04-10, 03:00:00,VALID,917.369,VALID,0,VALID,99.4929,VALID,-0.0169808,VALID,18.8614,VALID,124,VALID,0.688262,
2004-04-10, 03:01:00,VALID,917.379,VALID,0,VALID,99.6302,VALID,-0.0339617,VALID,18.8716,VALID,121,VALID,0.865885,
2004-04-10, 03:02:00,VALID,917.4,VALID,0,VALID,99.5654,VALID,-0.0169808,VALID,18.8614,VALID,109,VALID,0.870536,
2004-04-10, 03:03:00,VALID,917.415,VALID,0,VALID,99.5552,VALID,-0.0509425,VALID,18.8656,VALID,92,VALID,0.702604,
2004-04-10, 03:04:00,VALID,917.43,VALID,0,VALID,99.6582,VALID,0,VALID,18.8455,VALID,101,VALID,0.807617,
2004-04-10, 03:05:00,VALID,917.419,VALID,0,VALID,99.6798,VALID,-0.0679233,VALID,18.8522,VALID,124,VALID,0.895633,
2004-04-10, 03:06:00,VALID,917.411,VALID,0,VALID,99.7536,VALID,-0.0509425,VALID,18.8617,VALID,122,VALID,1.05078,
2004-04-10, 03:07:00,VALID,917.385,VALID,0,VALID,99.8146,VALID,-0.0509425,VALID,18.8912,VALID,128,VALID,1.19895,
2004-04-10, 03:08:00,VALID,917.351,VALID,0,VALID,99.793,VALID,-0.0679233,VALID,18.9175,VALID,131,VALID,1.12553,
2004-04-10, 03:09:00,VALID,917.346,VALID,0,VALID,99.7612,VALID,-0.0509425,VALID,18.9297,VALID,143,VALID,1.11846,
2004-04-10, 03:10:00,VALID,917.32,VALID,0,VALID,99.7065,VALID,-0.0509425,VALID,18.9458,VALID,128,VALID,0.957031,
2004-04-10, 03:11:00,VALID,917.313,VALID,0,VALID,99.5908,VALID,-0.0169808,VALID,18.9558,VALID,128,VALID,1.18659,
2004-04-10, 03:12:00,VALID,917.318,VALID,0,VALID,99.5285,VALID,-0.0339617,VALID,18.9495,VALID,127,VALID,1.28258,
2004-04-10, 03:13:00,VALID,917.313,VALID,0,VALID,99.4064,VALID,-0.0509425,VALID,18.9429,VALID,117,VALID,0.981534,
2004-04-10, 03:14:00,VALID,917.327,VALID,0,VALID,99.2843,VALID,-0.0339617,VALID,18.9202,VALID,86,VALID,0.656622,
2004-04-10, 03:15:00,VALID,917.314,VALID,0,VALID,99.3009,VALID,-0.0849042,VALID,18.911,VALID,92,VALID,0.891513,
2004-04-10, 03:16:00,VALID,917.313,VALID,0,VALID,99.3085,VALID,-0.0849042,VALID,18.8974,VALID,85,VALID,1.01163,
2004-04-10, 03:17:00,VALID,917.301,VALID,0,VALID,99.3962,VALID,0,VALID,18.9032,VALID,86,VALID,1.02871,
2004-04-10, 03:18:00,VALID,917.284,VALID,0,VALID,99.6086,VALID,0.0339617,VALID,18.9064,VALID,91,VALID,1.14977,
2004-04-10, 03:19:00,VALID,917.266,VALID,0,VALID,99.8286,VALID,0.0339617,VALID,18.9449,VALID,96,VALID,1.11254,
2004-04-10, 03:20:00,VALID,917.238,VALID,0,VALID,99.7396,VALID,0,VALID,18.9834,VALID,82,VALID,0.880952,
2004-04-10, 03:21:00,VALID,917.221,VALID,0,VALID,99.5857,VALID,0.0339617,VALID,18.9836,VALID,83,VALID,0.850472,
2004-04-10, 03:22:00,VALID,917.189,VALID,0,VALID,99.6073,VALID,0.0849042,VALID,18.9832,VALID,86,VALID,0.910326,
2004-04-10, 03:23:00,VALID,917.177,VALID,0,VALID,99.5946,VALID,0.0509425,VALID,18.9861,VALID,90,VALID,0.960106,
2004-04-10, 03:24:00,VALID,917.161,VALID,0,VALID,99.5883,VALID,0.0339617,VALID,18.9936,VALID,96,VALID,1.12609,
2004-04-10, 03:25:00,VALID,917.145,VALID,0,VALID,99.5539,VALID,0.0509425,VALID,18.9998,VALID,83,VALID,1.16239,
2004-04-10, 03:26:00,VALID,917.13,VALID,0,VALID,99.381,VALID,0.0509425,VALID,18.9804,VALID,80,VALID,0.818859,
2004-04-10, 03:27:00,VALID,917.112,VALID,0,VALID,99.4217,VALID,0.0509425,VALID,18.961,VALID,79,VALID,0.861852,
2004-04-10, 03:28:00,VALID,917.109,VALID,0,VALID,99.3492,VALID,0,VALID,18.9449,VALID,77,VALID,0.920058,
2004-04-10, 03:29:00,VALID,917.084,VALID,0,VALID,99.3301,VALID,0.0169808,VALID,18.9161,VALID,86,VALID,0.853795,
2004-04-10, 03:30:00,VALID,917.075,VALID,0,VALID,99.4229,VALID,0.0169808,VALID,18.9069,VALID,100,VALID,0.824855,
2004-04-10, 03:31:00,VALID,917.077,VALID,0,VALID,99.3594,VALID,0.0509425,VALID,18.8674,VALID,86,VALID,0.67016,
2004-04-10, 03:32:00,VALID,917.067,VALID,0,VALID,99.4242,VALID,0,VALID,18.8349,VALID,79,VALID,0.787972,